{"data":{"norad_id":87725,"intl_designator":"","name":"UNKNOWN","alt_names":[],"object_type":"UNKNOWN","status":"UNKNOWN","operator":null,"country":null,"launch_date":null,"launch_site_code":null,"launch_vehicle":null,"mission":null,"orbit_class":"UNKNOWN","rcs_meters":null,"size_class":null,"mass_kg":null,"dimensions":null,"purposes":[],"wikipedia_slug":null,"has_3d_model":false,"image_url":null,"decayed_at":null,"tle_current":{"epoch":"2026-05-22T15:08:57.655968Z","epoch_age_seconds":273588,"freshness":"STALE","line1":"1 87725U          26142.63122287  .00119131  00000+0  50705-2 0  9999","line2":"2 87725  82.8592 106.3030 0009751 140.7042 219.4905 15.22436578658189","mean_motion":15.22436578,"eccentricity":0.0009751,"inclination_deg":82.8592,"raan_deg":106.303,"arg_perigee_deg":140.7042,"mean_anomaly_deg":219.4905,"bstar":0.0050705,"rev_number":65818,"period_min":94.585220876111,"perigee_km":491.78829285134,"apogee_km":505.19909803359,"semimajor_km":6876.6306954425,"source":"CELESTRAK","updated_at":"2026-05-25T13:38:11.677407Z"}}}